Home > Weather > Matamoros > Past weeks

Flag for Mexico Weather for the Past 2 Weeks in Matamoros, Tamaulipas, Mexico

Now
44 °F

Clear.


Feels Like: 43 °F
Forecast: 42 / 71 °F
Wind: 3 mph from North

Location: Brownsville / South Padre Island International Airport

Current Time: Feb 7, 2016 at 1:01:02 AM

Latest Report: Feb 6, 2016 at 11:53 PM


Visibility: 10 mi

Pressure: 30.36 "Hg

Humidity: 76%

Dew point: 37 °F

Location of MatamorosLocation

Historic Weather in Matamoros — Graph

°F

Matamoros Temperature Yesterday

Maximum temperature yesterday: 72 °F (at 1:53 PM)
Minimum temperature yesterday: 44 °F (at 11:53 PM)
Average temperature yesterday: 59 °F

High & Low Weather Summary for the Past Weeks

 TemperatureHumidityPressure
High82 °F (Jan 31, 1:53 PM)100% (Jan 24, 4:53 AM)30.47 "Hg (Jan 24, 4:53 AM)
Low40 °F (Jan 28, 6:53 AM)14% (Feb 6, 3:53 PM)29.56 "Hg (Feb 2, 2:53 AM)
Average60 °F71%30.08 "Hg
* Reported Jan 22 11:53 PM — Feb 6 11:53 PM, Matamoros, Weather by CustomWeather, © 2016

Note: Actual official high and low records may vary slightly from our data, if they occured in-between our weather recording intervals... More about our weather records

Advertising

Matamoros Weather History for the Previous 24 Hours

 ConditionsComfort  
Time TempWeatherWind HumidityBarometerVisibility
11:53 PM
Sat, Feb 6
44 °FClear.3 mph76%30.36 "Hg10 mi
10:53 PM46 °FClear.5 mph77%30.37 "Hg10 mi
9:53 PM48 °FClear.No wind59%30.37 "Hg10 mi
8:53 PM50 °FClear.3 mph48%30.37 "Hg10 mi
7:53 PM54 °FClear.No wind47%30.36 "Hg10 mi
6:53 PM61 °FClear.5 mph24%30.34 "Hg10 mi
5:53 PM66 °FSunny.9 mph19%30.33 "Hg10 mi
4:53 PM70 °FSunny.14 mph15%30.32 "Hg10 mi
3:53 PM72 °FSunny.15 mph14%30.32 "Hg10 mi
2:53 PM72 °FSunny.12 mph17%30.32 "Hg10 mi
1:53 PM72 °FSunny.21 mph17%30.34 "Hg10 mi
12:53 PM71 °FSunny.18 mph26%30.37 "Hg10 mi
11:53 AM70 °FSunny.16 mph37%30.40 "Hg10 mi
10:53 AM67 °FSunny.17 mph53%30.42 "Hg10 mi
9:53 AM64 °FSunny.20 mph61%30.42 "Hg10 mi
8:53 AM58 °FSunny.10 mph75%30.39 "Hg10 mi
7:53 AM52 °FSunny.7 mph89%30.37 "Hg10 mi
6:53 AM52 °FClear.7 mph89%30.35 "Hg10 mi
5:53 AM54 °FClear.7 mph90%30.33 "Hg10 mi
4:53 AM56 °FMostly cloudy.6 mph90%30.31 "Hg10 mi
3:53 AM56 °FOvercast.6 mph90%30.30 "Hg10 mi
2:53 AM57 °FOvercast.5 mph83%30.29 "Hg10 mi
1:53 AM56 °FPassing clouds.5 mph87%30.28 "Hg10 mi
Weather by CustomWeather, © 2016

See weather overviewHow to use our weather pages